铱星星座 154星 (IRIDIUM 154)

导读 | 星芒AI

IRIDIUM 154 是 IRIDIUM 卫星通信系统的一部分,属于由 66 颗低轨卫星组成的星座,用于提供全球范围的语音和数据通信服务。该卫星运行在约 780 公里的高度,采用极地轨道,确保覆盖地球所有地区。IRIDIUM 系统广泛应用于航空、航海、军事和应急通信等领域,具有抗干扰、低延迟和高可靠性的特点。IRIDIUM 154 于 2017 年发射,是第二代 IRIDIUM NEXT 卫星之一,提升了通信容量和系统性能。

基本信息
目录编号:
43574
目录名称:
IRIDIUM 154
国际标识:
2018-061F
轨道中心:
EARTH
卫星名称:
铱星星座 154星
卫星全名:
铱星星座 154星 (IRIDIUM 154)
卫星状态:
在轨 (已飞行2698 天)
发射日期:
2018-07-25 UTC
国别 :
美国 (US)
星等 :
--
轨道信息
数据来源 国际轨道数据 AOE轨道数据
星历时间 2025-12-13T06:47:31+0800
11小时前
查看轨道信息
2025-12-09T16:00:00+0800
4天前
查看轨道信息
半长轴 7155.786km 7155.798km
偏心率 0.0002035 0.0002138
轨道倾角 86.398° 86.398°
近地点辐角 92.133° 93.463°
升交点赤经 134.673° 136.184°
平近点角 268.010° 326.666°
近地点 776.194km 776.133km
远地点 779.108km 779.193km
周期 100.403分钟 100.403分钟
每日圈数 14.342233 14.342197
详细信息
平衡模式:
三轴稳定
覆盖范围:
全球
运营商:
铱星通信公司
运营商所在国:
美国
制造商(研发单位):
阿莱尼亚宇航公司
制造商所在国:
意大利
使用方式:
暂无
卫星简介
铱星(Iridium)是由共66个运作中的通信卫星组成的卫星通信系统。这个系统原本规划77个通信卫星,所以用原子序数为77的铱元素来命名。铱卫星允许人们使用手持型电子设备进行全球性的语音及数据通讯。该卫星仍在工作。
2D轨道图
3D轨道图
轨道高度分析图
轨道倾角分析图
轨道综合分析图
查看轨道综合分析图